Flag for Honduras Weather past 2 weeks in Tegucigalpa, Honduras

Now
70 °F

Partly sunny.


Feels Like: 70 °F
Forecast: 67 / 83 °F
Wind: 5 mph from North

Location: Tegucigalpa Airport

Current Time: Jul 29, 2014 at 8:29:50 AM

Latest Report: Jul 29, 2014 at 8:00 AM


Visibility: 6 mi

Pressure: 30.15 "Hg

Humidity: 88%

Dew point: 66 °F

Location of TegucigalpaLocation

Historic Weather in Tegucigalpa — Graph

°F

Tegucigalpa temperature yesterday

Maximum temperature yesterday: 79 °F (at 12:00 PM)
Minimum temperature yesterday: 68 °F (at 3:00 AM)
Average temperature yesterday: 72 °F

Past Weeks' High & Low Weather Summary

 TemperatureHumidityPressure
High88 °F (Jul 16, 12:00 PM)100% (Jul 14, 7:00 AM)30.18 "Hg (Jul 14, 7:00 AM)
Low61 °F (Jul 16, 5:00 AM)35% (Jul 15, 1:00 PM)29.89 "Hg (Jul 19, 8:00 AM)
Average75 °F70%30.11 "Hg
* Reported Jul 14 7:00 AM — Jul 29 7:00 AM, Tegucigalpa, Weather by CustomWeather, © 2014

Note: Actual official high and low records may vary slightly from our data, if they occured in-between our weather recording intervals... More about our weather records

Advertising

Tegucigalpa weather history for previous 24 hours

 ConditionsComfort  
Time TempWeatherWind HumidityBarometerVisibility
7:00 AM
Jul 29
68 °FScattered showers. Partly sunny.7 mph94%30.15 "Hg4 mi
6:00 AM66 °FScattered showers. Partly sunny.6 mph100%30.12 "Hg4 mi
5:00 AM68 °FPassing clouds.3 mph94%30.12 "HgN/A
4:00 AM66 °FPassing clouds.6 mph100%30.12 "HgN/A
3:00 AM68 °FPartly cloudy.3 mph94%30.09 "HgN/A
2:00 AM68 °FPassing clouds.8 mph94%30.12 "HgN/A
1:00 AM68 °FPartly cloudy.5 mph94%30.15 "HgN/A
12:00 AM68 °FPartly cloudy.7 mph100%30.18 "HgN/A
11:00 PM
Jul 28
68 °FPassing clouds.5 mph94%30.18 "HgN/A
10:00 PM70 °FLight rain. Passing clouds.3 mph88%30.18 "Hg5 mi
9:00 PM68 °FLight rain. Partly cloudy.3 mph94%30.18 "Hg5 mi
8:00 PM70 °FScattered showers. Passing clouds.7 mph88%30.15 "Hg5 mi
7:00 PM70 °FScattered showers. Partly cloudy.7 mph88%30.15 "Hg5 mi
6:00 PM70 °FBroken clouds.9 mph88%30.12 "Hg4 mi
5:00 PM73 °FPartly sunny.9 mph78%30.09 "Hg4 mi
4:00 PM75 °FScattered clouds.14 mph69%30.09 "HgN/A
3:00 PM77 °FBroken clouds.12 mph74%30.09 "HgN/A
2:00 PM72 °FMixture of precip. Partly sunny.12 mph78%30.09 "HgN/A
1:00 PM79 °FPartly sunny.9 mph70%30.12 "HgN/A
12:00 PM79 °FPartly sunny.12 mph61%30.12 "HgN/A
11:10 AM77 °FPartly sunny.16 mph69%30.12 "HgN/A
10:00 AM75 °FScattered showers. Partly sunny.14 mph74%30.15 "Hg5 mi
9:00 AM72 °FScattered showers. Partly sunny.14 mph83%30.15 "HgN/A
8:00 AM72 °FScattered showers. Partly sunny.12 mph88%30.15 "HgN/A
Weather by CustomWeather, © 2014

See weather overviewHow to use our weather pages